Regional Weather Roundup
Issued by NWS Kansas City/Pleasant Hill, MO

Home | Current Version | Previous Version | Graphics & Text | Print | Product List | Glossary Off
Versions: 1 2 3 4 5 6 7 8 9 10 11 12 13 14 15 16 17 18 19 20 21 22 23 24 25 26 27 28 29 30 31 32 33 34 35 36 37 38 39 40 41 42 43 44 45 46 47 48 49 50

000
ASUS43 KEAX 061504
RWREAX

WEATHER ROUNDUP FOR EASTERN KANSAS AND NORTHWEST MISSOURI
NATIONAL WEATHER SERVICE KANSAS CITY/PLEASANT HILL MO
1000 AM CDT WED MAY 06 2015

KSZ040-057-103>105-MOZ028-029-037-043-061600-
...KANSAS CITY METROPOLITAN AREA...

CITY           SKY/WX    TMP DP  RH WIND       PRES   REMARKS
K.C. INTL      CLOUDY    68  60  75 S17       29.95R
K.C. DOWNTOWN  CLOUDY    69  59  70 S15       29.95R
LEES SUMMIT    CLOUDY    66  58  75 S14G23    29.97R
OLATHE - IXD   CLOUDY    66  60  81 S20G25    29.97R
OLATHE - OJC   CLOUDY    65  60  84 S18G26    29.97R
LAWRENCE       CLOUDY    68  60  75 S16G22    29.94R

$$

MOZ001>008-011>017-020>025-030>033-038>040-044>046-053-054-061600-
...NORTHERN AND CENTRAL MISSOURI...

CITY           SKY/WX    TMP DP  RH WIND       PRES   REMARKS
ST. JOSEPH     PTSUNNY   69  59  70 S22G30    29.92R
MOSBY          CLOUDY    68  57  68 S13G18    29.96R
HARRISONVILLE  CLOUDY    66  61  82 S10G16    30.01R
WHITEMAN AFB   NOT AVBL
CLINTON        CLOUDY    70  59  68 S17       30.00S
SEDALIA        LGT RAIN  68  58  70 S17G28    30.03R
WARSAW         NOT AVBL
MARSHALL       CLOUDY    72  61  68 S17G23    30.00S
CHILLICOTHE      N/A     71  58  63 S14G21    29.96F
MOBERLY        SUNNY     75  54  46 S13G25    30.05F
KIRKSVILLE     MOSUNNY   75  59  57 S20       30.04F

$$

MOZ041-047>049-056>058-063>065-088>090-097-061600-
...EASTERN AND SOUTHERN MISSOURI...

CITY           SKY/WX    TMP DP  RH WIND       PRES   REMARKS
ST. LOUIS INTL PTSUNNY   79  55  43 SW14G20   30.13F
SPIRIT OF STL  SUNNY     77  56  48 S8G20     30.11F
COLUMBIA       SUNNY     73  58  59 S15       30.07S
JEFFERSON CITY SUNNY     74  57  55 SE12      30.06F
MEXICO         SUNNY     77  59  53 S20G25    30.09S
HANNIBAL       SUNNY     77  52  41 S17G23    30.10S
ROLLA          SUNNY     75  57  53 S20       30.09F
LEBANON        MOSUNNY   72  57  60 SW12G25   30.11R
OSAGE BEACH    CLOUDY    73  57  56 S13       30.08S
SPRINGFIELD    RAIN      60  58  92 SE7       30.10S FOG
BRANSON        PTSUNNY   66  57  72 NE10      30.12S
NEVADA         DRIZZLE   63  59  88 S15G21    30.03S
JOPLIN         LGT RAIN  65  61  87 S22G28    30.00F
WEST PLAINS    MOSUNNY   72  56  57 S12       30.14S

$$

IAZ060-094-KSZ022-034>040-054-083-096-NEZ052-066-093-061600-
...KANSAS...SOUTHEAST NEBRASKA AND IOWA...

CITY           SKY/WX    TMP DP  RH WIND       PRES   REMARKS
TOPEKA         CLOUDY    67  59  75 S20G26    29.92R
MANHATTAN      CLOUDY    65  59  81 S17G23    29.85S
EMPORIA        LGT RAIN  59  57  93 S9        29.92R
CHANUTE        CLOUDY    64  59  83 S18G26    29.98R
WICHITA        CLOUDY    62  59  90 SE25G33   29.86S
OMAHA          CLOUDY    66  59  78 S22G30    29.84S
LINCOLN        LGT RAIN  65  60  84 S18       29.82S
FALLS CITY     PTSUNNY   67  59  75 S20G28    29.88R
LAMONI         PTSUNNY   70  58  65 SE14G24   29.93F
DES MOINES     CLOUDY    75  57  53 SE21G29   29.96F

$$




USA.gov is the U.S. government's official web portal to all federal, state and local government web resources and services.